START_TIME,STEP,MOV.,M6,t_acc.,M7,t_acc.,M19,t_acc.,H36,t_acc.
1981-08-27 18:00:27.870 ,1,1,0.,12.0,0.,12.0,0.,12.0,0.,12.0
1981-08-27 18:00:39.870 ,1,1,0.,12.0,0.,12.0,0.,12.0,0.,12.0
1981-08-27 18:00:51.870 ,2,1,0.,12.0,0.,12.0,0.,12.0,0.,12.0
1981-08-27 18:01:03.870 ,2,1,0.,12.0,0.,12.0,0.,12.0,0.,12.0
1981-08-27 18:01:15.870 ,3,1,0.,12.0,0.,12.0,0.,12.0,0.,12.0
1981-08-27 18:01:27.870 ,3,1,0.,12.0,0.,12.0,0.,12.0,0.,12.0
1981-08-27 18:01:39.870 ,4,1,0.,12.0,0.,12.0,0.,12.0,0.,12.0
1981-08-27 18:01:51.870 ,4,1,0.,12.0,0.,12.0,0.,12.0,0.,12.0
1981-08-27 18:02:03.870 ,5,1,0.,12.0,0.,12.0,0.,12.0,0.,12.0
1981-08-27 18:02:15.870 ,5,1,0.,12.0,0.,12.0,0.,12.0,0.,12.0
1981-08-27 18:02:27.870 ,6,1,0.,12.0,0.,12.0,0.,12.0,0.,12.0
1981-08-27 18:02:39.870 ,6,1,0.,12.0,0.,12.0,0.,12.0,0.,12.0
1981-08-27 18:02:51.870 ,7,1,0.,12.0,0.,12.0,0.,12.0,0.,12.0
1981-08-27 18:03:03.870 ,7,1,0.,12.0,0.,12.0,0.,12.0,0.,12.0
1981-08-27 18:03:15.870 ,7,1,0.,12.0,0.,12.0,0.,12.0,0.,12.0
1981-08-27 18:03:27.870 ,7,1,0.,12.0,0.,12.0,0.,12.0,0.,12.0
1981-08-27 18:03:39.870 ,7,0,0.,12.0,0.,12.0,0.,12.0,0.,12.0
1981-08-27 18:03:51.870 ,7,0,0.,12.0,0.,12.0,0.,12.0,0.,12.0
1981-08-27 18:04:03.870 ,6,1,0.,12.0,0.,12.0,0.,12.0,0.,12.0
1981-08-27 18:04:15.870 ,6,1,0.,12.0,0.,12.0,0.,12.0,0.,12.0
1981-08-27 18:04:27.870 ,6,0,0.,12.0,0.,12.0,0.,12.0,0.,12.0
1981-08-27 18:04:39.870 ,6,0,0.,12.0,0.,12.0,0.,12.0,0.,12.0
1981-08-27 18:04:51.870 ,5,1,0.,12.0,0.,12.0,0.,12.0,0.,12.0
1981-08-27 18:05:03.870 ,5,1,0.,12.0,0.,12.0,0.,12.0,0.,12.0
1981-08-27 18:05:15.870 ,5,0,0.,12.0,0.,12.0,0.,12.0,0.,12.0
1981-08-27 18:05:27.870 ,5,0,0.,12.0,0.,12.0,0.,12.0,0.,12.0
1981-08-27 18:05:39.870 ,4,1,0.,12.0,0.,12.0,0.,12.0,0.,12.0
1981-08-27 18:05:51.870 ,4,1,0.,12.0,0.,12.0,0.,12.0,0.,12.0
1981-08-27 18:06:03.870 ,4,0,0.,12.0,0.,12.0,0.,12.0,0.,12.0
1981-08-27 18:06:15.870 ,4,0,0.,12.0,0.,12.0,0.,12.0,0.,12.0
1981-08-27 18:06:27.870 ,3,1,0.,12.0,0.,12.0,0.,12.0,0.,12.0
1981-08-27 18:06:39.870 ,3,1,0.,12.0,0.,12.0,0.,12.0,0.,12.0
1981-08-27 18:06:51.870 ,3,0,0.,12.0,0.,12.0,0.,12.0,0.,12.0
1981-08-27 18:07:03.870 ,3,0,0.,12.0,0.,12.0,0.,12.0,0.,12.0
1981-08-27 18:07:15.870 ,2,1,0.,12.0,0.,12.0,0.,12.0,0.,12.0
1981-08-27 18:07:27.870 ,2,1,0.,12.0,0.,12.0,0.,12.0,0.,12.0
1981-08-27 18:07:39.870 ,2,0,0.,12.0,0.,12.0,0.,12.0,0.,12.0
1981-08-27 18:07:51.870 ,2,0,0.,12.0,0.,12.0,0.,12.0,0.,12.0
1981-08-27 18:08:03.870 ,1,1,0.,12.0,0.,12.0,0.,12.0,0.,12.0
1981-08-27 18:08:15.870 ,1,1,0.,12.0,0.,12.0,0.,12.0,0.,12.0
1981-08-27 18:08:27.870 ,1,0,0.,12.0,0.,12.0,0.,12.0,0.,12.0
1981-08-27 18:08:39.870 ,1,0,0.,12.0,0.,12.0,0.,12.0,0.,12.0
1981-08-27 18:08:51.870 ,0,1,0.,12.0,0.,12.0,0.,12.0,0.,12.0
1981-08-27 18:09:03.870 ,0,1,0.,12.0,0.,12.0,0.,12.0,0.,12.0
1981-08-27 18:09:15.870 ,0,0,0.,12.0,0.,12.0,0.,12.0,0.,12.0
1981-08-27 18:09:27.870 ,0,0,0.,12.0,0.,12.0,0.,12.0,0.,12.0
1981-08-27 18:09:39.870 ,0,1,0.,12.0,0.,12.0,0.,12.0,0.,12.0
1981-08-27 18:09:51.870 ,0,1,0.,12.0,0.,12.0,0.,12.0,0.,12.0
1981-08-27 18:10:03.870 ,0,0,0.,12.0,0.,12.0,0.,12.0,0.,12.0
1981-08-27 18:10:15.870 ,0,0,0.,12.0,0.,12.0,0.,12.0,0.,12.0
1981-08-27 18:10:27.870 ,1,1,0.,12.0,0.,12.0,0.,12.0,0.,12.0
1981-08-27 18:10:39.870 ,1,1,0.,12.0,0.,12.0,0.,12.0,0.,12.0
1981-08-27 18:10:51.870 ,1,0,0.,12.0,0.,12.0,0.,12.0,0.,12.0
1981-08-27 18:11:03.870 ,1,0,0.,12.0,0.,12.0,0.,12.0,0.,12.0
1981-08-27 18:11:15.870 ,2,1,0.,12.0,0.,12.0,0.,12.0,0.,12.0
1981-08-27 18:11:27.870 ,2,1,0.,12.0,0.,12.0,0.,12.0,0.,12.0
1981-08-27 18:11:39.870 ,2,0,0.,12.0,0.,12.0,0.,12.0,0.,12.0
1981-08-27 18:11:51.870 ,2,0,0.,12.0,0.,12.0,0.,12.0,0.,12.0
1981-08-27 18:12:03.870 ,3,1,0.,12.0,0.,12.0,0.,12.0,0.,12.0
1981-08-27 18:12:15.870 ,3,1,0.,12.0,0.,12.0,0.,12.0,0.,12.0
1981-08-27 18:12:27.870 ,3,0,0.,12.0,0.,12.0,0.,12.0,0.,12.0
1981-08-27 18:12:39.870 ,3,0,0.,12.0,0.,12.0,0.,12.0,0.,12.0
1981-08-27 18:12:51.870 ,4,1,0.,12.0,0.,12.0,0.,12.0,0.,12.0
1981-08-27 18:13:03.870 ,4,1,0.,12.0,0.,12.0,0.,12.0,0.,12.0
1981-08-27 18:13:15.870 ,4,0,0.,12.0,0.,12.0,0.,12.0,0.,12.0
1981-08-27 18:13:27.870 ,4,0,0.,12.0,0.,12.0,0.,12.0,0.,12.0
1981-08-27 18:13:39.870 ,5,1,0.,12.0,0.,12.0,0.,12.0,0.,12.0
1981-08-27 18:13:51.870 ,5,1,0.,12.0,0.,12.0,0.,12.0,0.,12.0
1981-08-27 18:14:03.870 ,5,0,0.,12.0,0.,12.0,0.,12.0,0.,12.0
1981-08-27 18:14:15.870 ,5,0,0.,12.0,0.,12.0,0.,12.0,0.,12.0
1981-08-27 18:14:27.870 ,6,1,0.,12.0,0.,12.0,0.,12.0,0.,12.0
1981-08-27 18:14:39.870 ,6,1,0.,12.0,0.,12.0,0.,12.0,0.,12.0
1981-08-27 18:14:51.870 ,6,0,0.,12.0,0.,12.0,0.,12.0,0.,12.0
1981-08-27 18:15:03.870 ,6,0,0.,12.0,0.,12.0,0.,12.0,0.,12.0
1981-08-27 18:15:15.870 ,7,1,0.,12.0,0.,12.0,0.,12.0,0.,12.0
1981-08-27 18:15:27.870 ,7,1,0.,12.0,0.,12.0,0.,12.0,0.,12.0
1981-08-27 18:15:39.870 ,7,0,0.,12.0,0.,12.0,0.,12.0,0.,12.0
1981-08-27 18:15:51.870 ,7,0,0.,12.0,0.,12.0,0.,12.0,0.,12.0
1981-08-27 18:16:03.870 ,7,1,0.,12.0,0.,12.0,0.,12.0,0.,12.0
1981-08-27 18:16:15.870 ,7,1,0.,12.0,0.,12.0,0.,12.0,0.,12.0
1981-08-27 18:16:27.870 ,6,1,0.,12.0,0.,12.0,0.,12.0,0.,12.0
1981-08-27 18:16:39.870 ,6,1,0.,12.0,0.,12.0,0.,12.0,0.,12.0
1981-08-27 18:16:51.870 ,5,1,0.,12.0,0.,12.0,0.,12.0,0.,12.0
1981-08-27 18:17:03.870 ,5,1,0.,12.0,0.,12.0,0.,12.0,0.,12.0
1981-08-27 18:17:15.870 ,4,1,0.,12.0,0.,12.0,0.,12.0,0.,12.0
1981-08-27 18:17:27.870 ,4,1,0.,12.0,0.,12.0,0.,12.0,0.,12.0
1981-08-27 18:17:39.870 ,3,1,0.,12.0,0.,12.0,0.,12.0,0.,12.0
1981-08-27 18:17:51.870 ,3,1,0.,12.0,0.,12.0,0.,12.0,0.,12.0
1981-08-27 18:18:03.870 ,2,1,0.,12.0,0.,12.0,0.,12.0,0.,12.0
1981-08-27 18:18:15.870 ,2,1,0.,12.0,0.,12.0,0.,12.0,0.,12.0
1981-08-27 18:18:27.870 ,1,1,0.,12.0,0.,12.0,0.,12.0,0.,12.0
1981-08-27 18:18:39.870 ,1,1,0.,12.0,0.,12.0,0.,12.0,0.,12.0
1981-08-27 18:18:51.870 ,0,1,0.,12.0,0.,12.0,0.,12.0,0.,12.0
1981-08-27 18:19:03.870 ,0,1,0.,12.0,0.,12.0,0.,12.0,0.,12.0
1981-08-27 18:19:15.870 ,0,1,0.,12.0,0.,12.0,0.,12.0,0.,12.0
1981-08-27 18:19:27.870 ,0,1,0.,12.0,0.,12.0,0.,12.0,0.,12.0
1981-08-27 18:19:39.870 ,1,1,0.,12.0,0.,12.0,0.,12.0,0.,12.0
1981-08-27 18:19:51.870 ,1,1,0.,12.0,0.,12.0,0.,12.0,0.,12.0
1981-08-27 18:20:03.870 ,2,1,0.,12.0,0.,12.0,0.,12.0,0.,12.0
1981-08-27 18:20:15.870 ,2,1,0.,12.0,0.,12.0,0.,12.0,0.,12.0
1981-08-27 18:20:27.870 ,3,1,0.,12.0,0.,12.0,0.,12.0,0.,12.0
1981-08-27 18:20:39.870 ,3,1,0.,12.0,0.,12.0,0.,12.0,0.,12.0
1981-08-27 18:20:51.870 ,4,1,0.,12.0,0.,12.0,0.,12.0,0.,12.0
1981-08-27 18:21:03.870 ,4,1,0.,12.0,0.,12.0,0.,12.0,0.,12.0
1981-08-27 18:21:15.870 ,5,1,0.,12.0,0.,12.0,0.,12.0,0.,12.0
1981-08-27 18:21:27.870 ,5,1,0.,12.0,0.,12.0,0.,12.0,0.,12.0
1981-08-27 18:21:39.870 ,6,1,0.,12.0,0.,12.0,0.,12.0,0.,12.0
1981-08-27 18:21:51.870 ,6,1,0.,12.0,0.,12.0,0.,12.0,0.,12.0
1981-08-27 18:22:03.870 ,7,1,0.,12.0,0.,12.0,0.,12.0,0.,12.0
1981-08-27 18:22:15.870 ,7,1,0.,12.0,0.,12.0,0.,12.0,0.,12.0
1981-08-27 18:22:27.870 ,7,1,0.,12.0,0.,12.0,0.,12.0,0.,12.0
1981-08-27 18:22:39.870 ,7,1,0.,12.0,0.,12.0,0.,12.0,0.,12.0
1981-08-27 18:22:51.870 ,7,0,0.,12.0,0.,12.0,0.,12.0,0.,12.0
1981-08-27 18:23:03.870 ,7,0,0.,12.0,0.,12.0,0.,12.0,0.,12.0
1981-08-27 18:23:15.870 ,6,1,0.,12.0,0.,12.0,0.,12.0,0.,12.0
1981-08-27 18:23:27.870 ,6,1,0.,12.0,0.,12.0,0.,12.0,0.,12.0
1981-08-27 18:23:39.870 ,6,0,0.,12.0,0.,12.0,0.,12.0,0.,12.0
1981-08-27 18:23:51.870 ,6,0,0.,12.0,0.,12.0,0.,12.0,0.,12.0
1981-08-27 18:24:03.870 ,5,1,0.,12.0,0.,12.0,0.,12.0,0.,12.0
1981-08-27 18:24:15.870 ,5,1,0.,12.0,0.,12.0,0.,12.0,0.,12.0
1981-08-27 18:24:27.870 ,5,0,0.,12.0,0.,12.0,0.,12.0,0.,12.0
1981-08-27 18:24:39.870 ,5,0,0.,12.0,0.,12.0,0.,12.0,0.,12.0
1981-08-27 18:24:51.870 ,4,1,0.,12.0,0.,12.0,0.,12.0,0.,12.0
1981-08-27 18:25:03.870 ,4,1,0.,12.0,0.,12.0,0.,12.0,0.,12.0
1981-08-27 18:25:15.870 ,4,0,0.,12.0,0.,12.0,0.,12.0,0.,12.0
1981-08-27 18:25:27.870 ,4,0,0.,12.0,0.,12.0,0.,12.0,0.,12.0
1981-08-27 18:25:39.870 ,3,1,0.,12.0,0.,12.0,0.,12.0,0.,12.0
1981-08-27 18:25:51.870 ,3,1,0.,12.0,0.,12.0,0.,12.0,0.,12.0
1981-08-27 18:26:03.870 ,3,0,0.,12.0,0.,12.0,0.,12.0,0.,12.0
1981-08-27 18:26:15.870 ,3,0,0.,12.0,0.,12.0,0.,12.0,0.,12.0
1981-08-27 18:26:27.870 ,2,1,0.,12.0,0.,12.0,0.,12.0,0.,12.0
1981-08-27 18:26:39.870 ,2,1,0.,12.0,0.,12.0,0.,12.0,0.,12.0
1981-08-27 18:26:51.870 ,2,0,0.,12.0,0.,12.0,0.,12.0,0.,12.0
1981-08-27 18:27:03.870 ,2,0,0.,12.0,0.,12.0,0.,12.0,0.,12.0
1981-08-27 18:27:15.870 ,1,1,0.,12.0,0.,12.0,0.,12.0,0.,12.0
1981-08-27 18:27:27.870 ,1,1,0.,12.0,0.,12.0,0.,12.0,0.,12.0
1981-08-27 18:27:39.870 ,1,0,0.,12.0,0.,12.0,0.,12.0,0.,12.0
1981-08-27 18:27:51.870 ,1,0,0.,12.0,0.,12.0,0.,12.0,0.,12.0
1981-08-27 18:28:03.870 ,0,1,0.,12.0,0.,12.0,0.,12.0,0.,12.0
1981-08-27 18:28:15.870 ,0,1,0.,12.0,0.,12.0,0.,12.0,0.,12.0
1981-08-27 18:28:27.870 ,0,0,0.,12.0,0.,12.0,0.,12.0,0.,12.0
1981-08-27 18:28:39.870 ,0,0,0.,12.0,0.,12.0,0.,12.0,0.,12.0
1981-08-27 18:28:51.870 ,0,1,0.,12.0,0.,12.0,0.,12.0,0.,12.0
1981-08-27 18:29:03.870 ,0,1,0.,12.0,0.,12.0,0.,12.0,0.,12.0
1981-08-27 18:29:15.870 ,0,0,0.,12.0,0.,12.0,0.,12.0,0.,12.0
1981-08-27 18:29:27.870 ,0,0,0.,12.0,0.,12.0,0.,12.0,0.,12.0
1981-08-27 18:29:39.870 ,1,1,0.,12.0,0.,12.0,0.,12.0,0.,12.0
1981-08-27 18:29:51.870 ,1,1,0.,12.0,0.,12.0,0.,12.0,0.,12.0
1981-08-27 18:30:03.870 ,1,0,0.,12.0,0.,12.0,0.,12.0,0.,12.0
1981-08-27 18:30:15.870 ,1,0,0.,12.0,0.,12.0,0.,12.0,0.,12.0
1981-08-27 18:30:27.870 ,2,1,0.,12.0,0.,12.0,0.,12.0,0.,12.0
1981-08-27 18:30:39.870 ,2,1,0.,12.0,0.,12.0,0.,12.0,0.,12.0
1981-08-27 18:30:51.870 ,2,0,0.,12.0,0.,12.0,0.,12.0,0.,12.0
1981-08-27 18:31:03.870 ,2,0,0.,12.0,0.,12.0,0.,12.0,0.,12.0
1981-08-27 18:31:15.870 ,3,1,0.,12.0,0.,12.0,0.,12.0,0.,12.0
1981-08-27 18:31:27.870 ,3,1,0.,12.0,0.,12.0,0.,12.0,0.,12.0
1981-08-27 18:31:39.870 ,3,0,0.,12.0,0.,12.0,0.,12.0,0.,12.0
1981-08-27 18:31:51.870 ,3,0,0.,12.0,0.,12.0,0.,12.0,0.,12.0
1981-08-27 18:32:03.870 ,4,1,0.,12.0,0.,12.0,0.,12.0,0.,12.0
1981-08-27 18:32:15.870 ,4,1,0.,12.0,0.,12.0,0.,12.0,0.,12.0
1981-08-27 18:32:27.870 ,4,0,0.,12.0,0.,12.0,0.,12.0,0.,12.0
1981-08-27 18:32:39.870 ,4,0,0.,12.0,0.,12.0,0.,12.0,0.,12.0
1981-08-27 18:32:51.870 ,5,1,0.,12.0,0.,12.0,0.,12.0,0.,12.0
1981-08-27 18:33:03.870 ,5,1,0.,12.0,0.,12.0,0.,12.0,0.,12.0
1981-08-27 18:33:15.870 ,5,0,0.,12.0,0.,12.0,0.,12.0,0.,12.0
1981-08-27 18:33:27.870 ,5,0,0.,12.0,0.,12.0,0.,12.0,0.,12.0
1981-08-27 18:33:39.870 ,6,1,0.,12.0,0.,12.0,0.,12.0,0.,12.0
1981-08-27 18:33:51.870 ,6,1,0.,12.0,0.,12.0,0.,12.0,0.,12.0
1981-08-27 18:34:03.870 ,6,0,0.,12.0,0.,12.0,0.,12.0,0.,12.0
1981-08-27 18:34:15.870 ,6,0,0.,12.0,0.,12.0,0.,12.0,0.,12.0
1981-08-27 18:34:27.870 ,7,1,0.,12.0,0.,12.0,0.,12.0,0.,12.0
1981-08-27 18:34:39.870 ,7,1,0.,12.0,0.,12.0,0.,12.0,0.,12.0
1981-08-27 18:34:51.870 ,7,0,0.,12.0,0.,12.0,0.,12.0,0.,12.0
1981-08-27 18:35:03.870 ,7,0,0.,12.0,0.,12.0,0.,12.0,0.,12.0
1981-08-27 18:35:15.870 ,7,1,0.,12.0,0.,12.0,0.,12.0,0.,12.0
1981-08-27 18:35:27.870 ,7,1,0.,12.0,0.,12.0,0.,12.0,0.,12.0
1981-08-27 18:35:39.870 ,6,1,0.,12.0,0.,12.0,0.,12.0,0.,12.0
1981-08-27 18:35:51.870 ,6,1,0.,12.0,0.,12.0,0.,12.0,0.,12.0
1981-08-27 18:36:03.870 ,5,1,0.,12.0,0.,12.0,0.,12.0,0.,12.0
1981-08-27 18:36:15.870 ,5,1,0.,12.0,0.,12.0,0.,12.0,0.,12.0
1981-08-27 18:36:27.870 ,4,1,0.,12.0,0.,12.0,0.,12.0,0.,12.0
1981-08-27 18:36:39.870 ,4,1,0.,12.0,0.,12.0,0.,12.0,0.,12.0
1981-08-27 18:36:51.870 ,3,1,0.,12.0,0.,12.0,0.,12.0,0.,12.0
1981-08-27 18:37:03.870 ,3,1,0.,12.0,0.,12.0,0.,12.0,0.,12.0
1981-08-27 18:37:15.870 ,2,1,0.,12.0,0.,12.0,0.,12.0,0.,12.0
1981-08-27 18:37:27.870 ,2,1,0.,12.0,0.,12.0,0.,12.0,0.,12.0
1981-08-27 18:37:39.870 ,1,1,0.,12.0,0.,12.0,0.,12.0,0.,12.0
1981-08-27 18:37:51.870 ,1,1,0.,12.0,0.,12.0,0.,12.0,0.,12.0
1981-08-27 18:38:03.870 ,0,1,0.,12.0,0.,12.0,0.,12.0,0.,12.0
1981-08-27 18:38:15.870 ,0,1,0.,12.0,0.,12.0,0.,12.0,0.,12.0
1981-08-27 18:38:27.870 ,0,1,0.,12.0,0.,12.0,0.,12.0,0.,12.0
1981-08-27 18:38:39.870 ,0,1,0.,12.0,0.,12.0,0.,12.0,0.,12.0
1981-08-27 18:38:51.870 ,1,1,0.,12.0,0.,12.0,0.,12.0,0.,12.0
1981-08-27 18:39:03.870 ,1,1,0.,12.0,0.,12.0,0.,12.0,0.,12.0
1981-08-27 18:39:15.870 ,2,1,0.,12.0,0.,12.0,0.,12.0,0.,12.0
1981-08-27 18:39:27.870 ,2,1,0.,12.0,0.,12.0,0.,12.0,0.,12.0
1981-08-27 18:39:39.870 ,3,1,0.,12.0,0.,12.0,0.,12.0,0.,12.0
1981-08-27 18:39:51.870 ,3,1,0.,12.0,0.,12.0,0.,12.0,0.,12.0
1981-08-27 18:40:03.870 ,4,1,0.,12.0,0.,12.0,0.,12.0,0.,12.0
1981-08-27 18:40:15.870 ,4,1,0.,12.0,0.,12.0,0.,12.0,0.,12.0
1981-08-27 18:40:27.870 ,5,1,0.,12.0,0.,12.0,0.,12.0,0.,12.0
1981-08-27 18:40:39.870 ,5,1,0.,12.0,0.,12.0,0.,12.0,0.,12.0
1981-08-27 18:40:51.870 ,6,1,0.,12.0,0.,12.0,0.,12.0,0.,12.0
1981-08-27 18:41:03.870 ,6,1,0.,12.0,0.,12.0,0.,12.0,0.,12.0
1981-08-27 18:41:15.870 ,7,1,0.,12.0,0.,12.0,0.,12.0,0.,12.0
1981-08-27 18:41:27.870 ,7,1,0.,12.0,0.,12.0,0.,12.0,0.,12.0
1981-08-27 18:41:39.870 ,7,1,0.,12.0,0.,12.0,0.,12.0,0.,12.0
1981-08-27 18:41:51.870 ,7,1,0.,12.0,0.,12.0,0.,12.0,0.,12.0
1981-08-27 18:42:03.870 ,7,0,0.,12.0,0.,12.0,0.,12.0,0.,12.0
1981-08-27 18:42:15.870 ,7,0,0.,12.0,0.,12.0,0.,12.0,0.,12.0
1981-08-27 18:42:27.870 ,6,1,0.,12.0,0.,12.0,0.,12.0,0.,12.0
1981-08-27 18:42:39.870 ,6,1,0.,12.0,0.,12.0,0.,12.0,0.,12.0
1981-08-27 18:42:51.870 ,6,0,0.,12.0,0.,12.0,0.,12.0,0.,12.0
1981-08-27 18:43:03.870 ,6,0,0.,12.0,0.,12.0,0.,12.0,0.,12.0
1981-08-27 18:43:15.870 ,5,1,0.,12.0,0.,12.0,0.,12.0,0.,12.0
1981-08-27 18:43:27.870 ,5,1,0.,12.0,0.,12.0,0.,12.0,0.,12.0
1981-08-27 18:43:39.870 ,5,0,0.,12.0,0.,12.0,0.,12.0,0.,12.0
1981-08-27 18:43:51.870 ,5,0,0.,12.0,0.,12.0,0.,12.0,0.,12.0
1981-08-27 18:44:03.870 ,4,1,0.,12.0,0.,12.0,0.,12.0,0.,12.0
1981-08-27 18:44:15.870 ,4,1,0.,12.0,0.,12.0,0.,12.0,0.,12.0
1981-08-27 18:44:27.870 ,4,0,0.,12.0,0.,12.0,0.,12.0,0.,12.0
1981-08-27 18:44:39.870 ,4,0,0.,12.0,0.,12.0,0.,12.0,0.,12.0
1981-08-27 18:44:51.870 ,3,1,0.,12.0,0.,12.0,0.,12.0,0.,12.0
1981-08-27 18:45:03.870 ,3,1,0.,12.0,0.,12.0,0.,12.0,0.,12.0
1981-08-27 18:45:15.870 ,3,0,0.,12.0,0.,12.0,0.,12.0,0.,12.0
1981-08-27 18:45:27.870 ,3,0,0.,12.0,0.,12.0,0.,12.0,0.,12.0
1981-08-27 18:45:39.870 ,2,1,0.,12.0,0.,12.0,0.,12.0,0.,12.0
1981-08-27 18:45:51.870 ,2,1,0.,12.0,0.,12.0,0.,12.0,0.,12.0
1981-08-27 18:46:03.870 ,2,0,0.,12.0,0.,12.0,0.,12.0,0.,12.0
1981-08-27 18:46:15.870 ,2,0,0.,12.0,0.,12.0,0.,12.0,0.,12.0
1981-08-27 18:46:27.870 ,1,1,0.,12.0,0.,12.0,0.,12.0,0.,12.0
1981-08-27 18:46:39.870 ,1,1,0.,12.0,0.,12.0,0.,12.0,0.,12.0
1981-08-27 18:46:51.870 ,1,0,0.,12.0,0.,12.0,0.,12.0,0.,12.0
1981-08-27 18:47:03.870 ,1,0,0.,12.0,0.,12.0,0.,12.0,0.,12.0
1981-08-27 18:47:15.870 ,0,1,0.,12.0,0.,12.0,0.,12.0,0.,12.0
1981-08-27 18:47:27.870 ,0,1,0.,12.0,0.,12.0,0.,12.0,0.,12.0
1981-08-27 18:47:39.870 ,0,0,0.,12.0,0.,12.0,0.,12.0,0.,12.0
1981-08-27 18:47:51.870 ,0,0,0.,12.0,0.,12.0,0.,12.0,0.,12.0
1981-08-27 18:48:03.870 ,0,1,0.,12.0,0.,12.0,0.,12.0,0.,12.0
1981-08-27 18:48:15.870 ,0,1,0.,12.0,0.,12.0,0.,12.0,0.,12.0
1981-08-27 18:48:27.870 ,0,0,0.,12.0,0.,12.0,0.,12.0,0.,12.0
1981-08-27 18:48:39.870 ,0,0,0.,12.0,0.,12.0,0.,12.0,0.,12.0
1981-08-27 18:48:51.870 ,1,1,0.,12.0,0.,12.0,0.,12.0,0.,12.0
1981-08-27 18:49:03.870 ,1,1,0.,12.0,0.,12.0,0.,12.0,0.,12.0
1981-08-27 18:49:15.870 ,1,0,0.,12.0,0.,12.0,0.,12.0,0.,12.0
1981-08-27 18:49:27.870 ,1,0,0.,12.0,0.,12.0,0.,12.0,0.,12.0
1981-08-27 18:49:39.870 ,2,1,0.,12.0,0.,12.0,0.,12.0,0.,12.0
1981-08-27 18:49:51.870 ,2,1,0.,12.0,0.,12.0,0.,12.0,0.,12.0
1981-08-27 18:50:03.870 ,2,0,0.,12.0,0.,12.0,0.,12.0,0.,12.0
1981-08-27 18:50:15.870 ,2,0,0.,12.0,0.,12.0,0.,12.0,0.,12.0
1981-08-27 18:50:27.870 ,3,1,0.,12.0,0.,12.0,0.,12.0,0.,12.0
1981-08-27 18:50:39.870 ,3,1,0.,12.0,0.,12.0,0.,12.0,0.,12.0
1981-08-27 18:50:51.870 ,3,0,0.,12.0,0.,12.0,0.,12.0,0.,12.0
1981-08-27 18:51:03.870 ,3,0,0.,12.0,0.,12.0,0.,12.0,0.,12.0
1981-08-27 18:51:15.870 ,4,1,0.,12.0,0.,12.0,0.,12.0,0.,12.0
1981-08-27 18:51:27.870 ,4,1,0.,12.0,0.,12.0,0.,12.0,0.,12.0
1981-08-27 18:51:39.870 ,4,0,0.,12.0,0.,12.0,0.,12.0,0.,12.0
1981-08-27 18:51:51.870 ,4,0,0.,12.0,0.,12.0,0.,12.0,0.,12.0
1981-08-27 18:52:03.870 ,5,1,0.,12.0,0.,12.0,0.,12.0,0.,12.0
1981-08-27 18:52:15.870 ,5,1,0.,12.0,0.,12.0,0.,12.0,0.,12.0
1981-08-27 18:52:27.870 ,5,0,0.,12.0,0.,12.0,0.,12.0,0.,12.0
1981-08-27 18:52:39.870 ,5,0,0.,12.0,0.,12.0,0.,12.0,0.,12.0
1981-08-27 18:52:51.870 ,6,1,0.,12.0,0.,12.0,0.,12.0,0.,12.0
1981-08-27 18:53:03.870 ,6,1,0.,12.0,0.,12.0,0.,12.0,0.,12.0
1981-08-27 18:53:15.870 ,6,0,0.,12.0,0.,12.0,0.,12.0,0.,12.0
1981-08-27 18:53:27.870 ,6,0,0.,12.0,0.,12.0,0.,12.0,0.,12.0
1981-08-27 18:53:39.870 ,7,1,0.,12.0,0.,12.0,0.,12.0,0.,12.0
1981-08-27 18:53:51.870 ,7,1,0.,12.0,0.,12.0,0.,12.0,0.,12.0
1981-08-27 18:54:03.870 ,7,0,0.,12.0,0.,12.0,0.,12.0,0.,12.0
1981-08-27 18:54:15.870 ,7,0,0.,12.0,0.,12.0,0.,12.0,0.,12.0
1981-08-27 18:54:27.870 ,7,1,0.,12.0,0.,12.0,0.,12.0,0.,12.0
1981-08-27 18:54:39.870 ,7,1,0.,12.0,0.,12.0,0.,12.0,0.,12.0
1981-08-27 18:54:51.870 ,6,1,0.,12.0,0.,12.0,0.,12.0,0.,12.0
1981-08-27 18:55:03.870 ,6,1,0.,12.0,0.,12.0,0.,12.0,0.,12.0
1981-08-27 18:55:15.870 ,5,1,0.,12.0,0.,12.0,0.,12.0,0.,12.0
1981-08-27 18:55:27.870 ,5,1,0.,12.0,0.,12.0,0.,12.0,0.,12.0
1981-08-27 18:55:39.870 ,4,1,0.,12.0,0.,12.0,0.,12.0,0.,12.0
1981-08-27 18:55:51.870 ,4,1,0.,12.0,0.,12.0,0.,12.0,0.,12.0
1981-08-27 18:56:03.870 ,3,1,0.,12.0,0.,12.0,0.,12.0,0.,12.0
1981-08-27 18:56:15.870 ,3,1,0.,12.0,0.,12.0,0.,12.0,0.,12.0
1981-08-27 18:56:27.870 ,2,1,0.,12.0,0.,12.0,0.,12.0,0.,12.0
1981-08-27 18:56:39.870 ,2,1,0.,12.0,0.,12.0,0.,12.0,0.,12.0
1981-08-27 18:56:51.870 ,1,1,0.,12.0,0.,12.0,0.,12.0,0.,12.0
1981-08-27 18:57:03.870 ,1,1,0.,12.0,0.,12.0,0.,12.0,0.,12.0
1981-08-27 18:57:15.870 ,0,1,0.,12.0,0.,12.0,0.,12.0,0.,12.0
1981-08-27 18:57:27.870 ,0,1,0.,12.0,0.,12.0,0.,12.0,0.,12.0
1981-08-27 18:57:39.870 ,0,1,0.,12.0,0.,12.0,0.,12.0,0.,12.0
1981-08-27 18:57:51.870 ,0,1,0.,12.0,0.,12.0,0.,12.0,0.,12.0
1981-08-27 18:58:03.870 ,1,1,0.,12.0,0.,12.0,0.,12.0,0.,12.0
1981-08-27 18:58:15.870 ,1,1,0.,12.0,0.,12.0,0.,12.0,0.,12.0
1981-08-27 18:58:27.870 ,2,1,0.,12.0,0.,12.0,0.,12.0,0.,12.0
1981-08-27 18:58:39.870 ,2,1,0.,12.0,0.,12.0,0.,12.0,0.,12.0
1981-08-27 18:58:51.870 ,3,1,0.,12.0,0.,12.0,0.,12.0,0.,12.0
1981-08-27 18:59:03.870 ,3,1,0.,12.0,0.,12.0,0.,12.0,0.,12.0
1981-08-27 18:59:15.870 ,4,1,0.,12.0,0.,12.0,0.,12.0,0.,12.0
1981-08-27 18:59:27.870 ,4,1,0.,12.0,0.,12.0,0.,12.0,0.,12.0
1981-08-27 18:59:39.870 ,5,1,0.,12.0,0.,12.0,0.,12.0,0.,12.0
1981-08-27 18:59:51.870 ,5,1,0.,12.0,0.,12.0,0.,12.0,0.,12.0
1981-08-27 19:00:03.870 ,6,1,0.,12.0,0.,12.0,0.,12.0,0.,12.0
1981-08-27 19:00:15.870 ,6,1,0.,12.0,0.,12.0,0.,12.0,0.,12.0
1981-08-27 19:00:27.870 ,7,1,0.,12.0,0.,12.0,0.,12.0,0.,12.0
1981-08-27 19:00:39.870 ,7,1,0.,12.0,0.,12.0,0.,12.0,0.,12.0
1981-08-27 19:00:51.870 ,7,1,0.,12.0,0.,12.0,0.,12.0,0.,12.0
1981-08-27 19:01:03.870 ,7,1,0.,12.0,0.,12.0,0.,12.0,0.,12.0
1981-08-27 19:01:15.870 ,7,0,0.,12.0,0.,12.0,0.,12.0,0.,12.0
1981-08-27 19:01:27.870 ,7,0,0.,12.0,0.,12.0,0.,12.0,0.,12.0
1981-08-27 19:01:39.870 ,6,1,0.,12.0,0.,12.0,0.,12.0,0.,12.0
1981-08-27 19:01:51.870 ,6,1,0.,12.0,0.,12.0,0.,12.0,0.,12.0
1981-08-27 19:02:03.870 ,6,0,0.,12.0,0.,12.0,0.,12.0,0.,12.0
1981-08-27 19:02:15.870 ,6,0,0.,12.0,0.,12.0,0.,12.0,0.,12.0
1981-08-27 19:02:27.870 ,5,1,0.,12.0,0.,12.0,0.,12.0,0.,12.0
1981-08-27 19:02:39.870 ,5,1,0.,12.0,0.,12.0,0.,12.0,0.,12.0
1981-08-27 19:02:51.870 ,5,0,0.,12.0,0.,12.0,0.,12.0,0.,12.0
1981-08-27 19:03:03.870 ,5,0,0.,12.0,0.,12.0,0.,12.0,0.,12.0
1981-08-27 19:03:15.870 ,4,1,0.,12.0,0.,12.0,0.,12.0,0.,12.0
1981-08-27 19:03:27.870 ,4,1,0.,12.0,0.,12.0,0.,12.0,0.,12.0
1981-08-27 19:03:39.870 ,4,0,0.,12.0,0.,12.0,0.,12.0,0.,12.0
1981-08-27 19:03:51.870 ,4,0,0.,12.0,0.,12.0,0.,12.0,0.,12.0
1981-08-27 19:04:03.870 ,3,1,0.,12.0,0.,12.0,0.,12.0,0.,12.0
1981-08-27 19:04:15.870 ,3,1,0.,12.0,0.,12.0,0.,12.0,0.,12.0
1981-08-27 19:04:27.870 ,3,0,0.,12.0,0.,12.0,0.,12.0,0.,12.0
1981-08-27 19:04:39.870 ,3,0,0.,12.0,0.,12.0,0.,12.0,0.,12.0
1981-08-27 19:04:51.870 ,2,1,0.,12.0,0.,12.0,0.,12.0,0.,12.0
1981-08-27 19:05:03.870 ,2,1,0.,12.0,0.,12.0,0.,12.0,0.,12.0
1981-08-27 19:05:15.870 ,2,0,0.,12.0,0.,12.0,0.,12.0,0.,12.0
1981-08-27 19:05:27.870 ,2,0,0.,12.0,0.,12.0,0.,12.0,0.,12.0
1981-08-27 19:05:39.870 ,1,1,0.,12.0,0.,12.0,0.,12.0,0.,12.0
1981-08-27 19:05:51.870 ,1,1,0.,12.0,0.,12.0,0.,12.0,0.,12.0
1981-08-27 19:06:03.870 ,1,0,0.,12.0,0.,12.0,0.,12.0,0.,12.0
1981-08-27 19:06:15.870 ,1,0,0.,12.0,0.,12.0,0.,12.0,0.,12.0
1981-08-27 19:06:27.870 ,0,1,0.,12.0,0.,12.0,0.,12.0,0.,12.0
1981-08-27 19:06:39.870 ,0,1,0.,12.0,0.,12.0,0.,12.0,0.,12.0
1981-08-27 19:06:51.870 ,0,0,0.,12.0,0.,12.0,0.,12.0,0.,12.0
1981-08-27 19:07:03.870 ,0,0,0.,12.0,0.,12.0,0.,12.0,0.,12.0
1981-08-27 19:07:15.870 ,0,1,0.,12.0,0.,12.0,0.,12.0,0.,12.0
1981-08-27 19:07:27.870 ,0,1,0.,12.0,0.,12.0,0.,12.0,0.,12.0
1981-08-27 19:07:39.870 ,0,0,0.,12.0,0.,12.0,0.,12.0,0.,12.0
1981-08-27 19:07:51.870 ,0,0,0.,12.0,0.,12.0,0.,12.0,0.,12.0
1981-08-27 19:08:03.870 ,1,1,0.,12.0,0.,12.0,0.,12.0,0.,12.0
1981-08-27 19:08:15.870 ,1,1,0.,12.0,0.,12.0,0.,12.0,0.,12.0
1981-08-27 19:08:27.870 ,1,0,0.,12.0,0.,12.0,0.,12.0,0.,12.0
1981-08-27 19:08:39.870 ,1,0,0.,12.0,0.,12.0,0.,12.0,0.,12.0
1981-08-27 19:08:51.870 ,2,1,0.,12.0,0.,12.0,0.,12.0,0.,12.0
1981-08-27 19:09:03.870 ,2,1,0.,12.0,0.,12.0,0.,12.0,0.,12.0
1981-08-27 19:09:15.870 ,2,0,0.,12.0,0.,12.0,0.,12.0,0.,12.0
1981-08-27 19:09:27.870 ,2,0,0.,12.0,0.,12.0,0.,12.0,0.,12.0
1981-08-27 19:09:39.870 ,3,1,0.,12.0,0.,12.0,0.,12.0,0.,12.0
1981-08-27 19:09:51.870 ,3,1,0.,12.0,0.,12.0,0.,12.0,0.,12.0
1981-08-27 19:10:03.870 ,3,0,0.,12.0,0.,12.0,0.,12.0,0.,12.0
1981-08-27 19:10:15.870 ,3,0,0.,12.0,0.,12.0,0.,12.0,0.,12.0
1981-08-27 19:10:27.870 ,4,1,0.,12.0,0.,12.0,0.,12.0,0.,12.0
1981-08-27 19:10:39.870 ,4,1,0.,12.0,0.,12.0,0.,12.0,0.,12.0
1981-08-27 19:10:51.870 ,4,0,0.,12.0,0.,12.0,0.,12.0,0.,12.0
1981-08-27 19:11:03.870 ,4,0,0.,12.0,0.,12.0,0.,12.0,0.,12.0
1981-08-27 19:11:15.870 ,5,1,0.,12.0,0.,12.0,0.,12.0,0.,12.0
1981-08-27 19:11:27.870 ,5,1,0.,12.0,0.,12.0,0.,12.0,0.,12.0
1981-08-27 19:11:39.870 ,5,0,0.,12.0,0.,12.0,0.,12.0,0.,12.0
1981-08-27 19:11:51.870 ,5,0,0.,12.0,0.,12.0,0.,12.0,0.,12.0
1981-08-27 19:12:03.870 ,6,1,0.,12.0,0.,12.0,0.,12.0,0.,12.0
1981-08-27 19:12:15.870 ,6,1,0.,12.0,0.,12.0,0.,12.0,0.,12.0
1981-08-27 19:12:27.870 ,6,0,0.,12.0,0.,12.0,0.,12.0,0.,12.0
1981-08-27 19:12:39.870 ,6,0,0.,12.0,0.,12.0,0.,12.0,0.,12.0
1981-08-27 19:12:51.870 ,7,1,0.,12.0,0.,12.0,0.,12.0,0.,12.0
1981-08-27 19:13:03.870 ,7,1,0.,12.0,0.,12.0,0.,12.0,0.,12.0
1981-08-27 19:13:15.870 ,7,0,0.,12.0,0.,12.0,0.,12.0,0.,12.0
1981-08-27 19:13:27.870 ,7,0,0.,12.0,0.,12.0,0.,12.0,0.,12.0
1981-08-27 19:13:39.870 ,7,1,0.,12.0,0.,12.0,0.,12.0,0.,12.0
1981-08-27 19:13:51.870 ,7,1,0.,12.0,0.,12.0,0.,12.0,0.,12.0
1981-08-27 19:14:03.870 ,6,1,0.,12.0,0.,12.0,0.,12.0,0.,12.0
1981-08-27 19:14:15.870 ,6,1,0.,12.0,0.,12.0,0.,12.0,0.,12.0
1981-08-27 19:14:27.870 ,5,1,0.,12.0,0.,12.0,0.,12.0,0.,12.0
1981-08-27 19:14:39.870 ,5,1,0.,12.0,0.,12.0,0.,12.0,0.,12.0
1981-08-27 19:14:51.870 ,4,1,0.,12.0,0.,12.0,0.,12.0,0.,12.0
1981-08-27 19:15:03.870 ,4,1,0.,12.0,0.,12.0,0.,12.0,0.,12.0
1981-08-27 19:15:15.870 ,3,1,0.,12.0,0.,12.0,0.,12.0,0.,12.0
1981-08-27 19:15:27.870 ,3,1,0.,12.0,0.,12.0,0.,12.0,0.,12.0
1981-08-27 19:15:39.870 ,2,1,0.,12.0,0.,12.0,0.,12.0,0.,12.0
1981-08-27 19:15:51.870 ,2,1,0.,12.0,0.,12.0,0.,12.0,0.,12.0
1981-08-27 19:16:03.870 ,1,1,0.,12.0,0.,12.0,0.,12.0,0.,12.0
1981-08-27 19:16:15.870 ,1,1,0.,12.0,0.,12.0,0.,12.0,0.,12.0
1981-08-27 19:16:27.870 ,0,1,0.,12.0,0.,12.0,0.,12.0,0.,12.0
1981-08-27 19:16:39.870 ,0,1,0.,12.0,0.,12.0,0.,12.0,0.,12.0
1981-08-27 19:16:51.870 ,0,1,0.,12.0,0.,12.0,0.,12.0,0.,12.0
1981-08-27 19:17:03.870 ,0,1,0.,12.0,0.,12.0,0.,12.0,0.,12.0
1981-08-27 19:17:15.870 ,1,1,0.,12.0,0.,12.0,0.,12.0,0.,12.0
1981-08-27 19:17:27.870 ,1,1,0.,12.0,0.,12.0,0.,12.0,0.,12.0